www.pogodaiklimat.ru

Погода и климат >> Архив погоды >> Нигер >> Тиллабери


ПОГОДА в Тиллабери

  • Прогноз погоды в Тиллабери
  • Монитор погоды в Тиллабери

АРХИВ ПОГОДЫ в Тиллабери

Время (UTC), дата Ветер
(напр.,м/с)
 
Видим.   Явления Облачность Т
(С)
Тd
(С)
f
(%)
Тe
(С)
Тes
(С)
Комфортность P
(гПа)
Po
(гПа)
Тmin
(С)
Tmax
(С)
R
(мм)
R24
(мм)
S
(см)
15 12.01 СВ 4 10 км 6/0
[Ci sp]
+35.0 -5.2 7 +31 +35 жарко 1009.6 986.1
18 12.01 штиль 0 10 км 6/0
[Ci sp]
+31.5 -1.9 11 +28 +28 жарко 1009.9 986.2 +35.6
21 12.01 штиль 0 10 км 6/0
[Ci sp]
+26.8 -5.1 12 +24 +24 комфорт 1012.0 988.4
03 13.01 СВ 8 10 км 6/0
[Ci sp]
+22.0 -9.8 11 +20 +20 1011.5 988.0
06 13.01 СВ 8 10 км 6/0
[Ci sp]
+21.4 -12.1 10 +20 +20 1012.0 988.5 +21.0
09 13.01 В 4 10 км 4/0
[Ci fib]
+26.0 -13.2 7 +23 +27 комфорт 1014.8 991.0
12 13.01 В 6 10 км 3/0
[Ci fib]
+32.5 -8.0 7 +28 +34 жарко 1013.3 989.8
15 13.01 В 6 10 км 3/0
[Ci fib]
+34.5 -8.1 6 +30 +32 жарко 1011.8 988.3
18 13.01 СВ 4 10 км 4/0
[Ac und Ci fib]
+30.6 -1.6 12 +27 +27 жарко 1012.1 988.4 +35.6
21 13.01 СВ 4 10 км 4/0
[Ci fib]
+26.0 -5.9 12 +23 +23 комфорт 1013.8 990.0
03 14.01 СВ 6 10 км 6/0
[Ci sp]
+21.4 -8.0 13 +20 +20 1012.4 988.9
06 14.01 СВ 6 10 км 4/0
[Ci fib]
+19.5 -11.0 12 +19 +19 1013.6 989.8 +19.5
09 14.01 ЮВ 6 10 км 4/0
[Ci sp]
+24.5 -7.9 11 +22 +25 комфорт 1015.6 991.8
12 14.01 В 4 10 км 6/0
[Ci sp]
+31.0 -4.1 10 +27 +36 жарко 1013.9 990.2
15 14.01 В 4 10 км 6/0
[Ci sp]
+33.5 +0.8 13 +30 +34 жарко 1011.6 988.1
18 14.01 штиль 0 10 км 6/0
[Ci sp]
+29.8 +1.1 16 +27 +27 жарко 1012.0 988.2 +34.0
21 14.01 ЮВ 4 10 км 6/0
[Ci sp]
+25.3 -4.2 14 +23 +23 комфорт 1013.3 989.5
03 15.01 СВ 6 10 км 6/0
[Ci sp]
+21.5 -8.2 13 +20 +20 1011.6 988.1
06 15.01 СВ 6 10 км 6/0
[Ci sp]
+21.5 -8.2 13 +20 +20 1011.6 988.1
09 15.01 СВ 10 6000 м пыль 4/0
[Ci fib]
+24.4 -12.7 8 +22 +22 комфорт 1014.7 990.4
12 15.01 В 6 10 км 4/0
[Ci fib]
+30.2 -10.2 7 +26 +32 жарко 1013.5 989.8
15 15.01 В 6 10 км 3/0
[Ci sp]
+32.7 -5.2 8 +29 +31 жарко 1011.7 988.1
18 15.01 штиль 0 10 км 3/0
[Ci fib]
+29.5 -3.3 12 +26 +26 жарко 1012.4 988.6 +33.5
21 15.01 штиль 0 10 км 4/0
[Ci fib]
+24.5 -2.5 17 +23 +23 комфорт 1013.3 989.7
00 16.01 штиль 0 10 км 4/0
[Ci fib]
+24.5 -2.5 17 +23 +23 комфорт 1013.3 989.7
03 16.01 штиль 0 10 км 6/0
[Ci sp]
+19.0 -2.1 24 +19 +19 1012.6 988.9
06 16.01 штиль 0 10 км 3/0
[Ci fib]
+19.2 -6.3 17 +19 +19 1013.0 989.1 +17.2
09 16.01 ЮВ 4 10 км 4/0
[Ci sp]
+24.5 -1.6 18 +23 +27 комфорт 1013.9 990.1
12 16.01 ЮВ 4 10 км 6/0
[Ci sp]
+31.0 +0.8 14 +28 +37 жарко 1012.6 988.4
15 16.01 Ю 4 10 км 6/0
[Ci sp]
+34.0 +1.8 13 +31 +35 жарко 1009.7 986.1
18 16.01 штиль 0 10 км 6/0
[Ci sp]
+29.7 +6.8 24 +29 +29 жарко 1009.8 986.1 +34.4
21 16.01 штиль 0 10 км 6/0
[Ci sp]
+24.0 -6.2 13 +22 +22 комфорт 1011.2 987.4
03 17.01 штиль 0 10 км 6/0
[Ci sp]
+19.0 +6.9 45 +19 +19 1011.5 986.9
06 17.01 штиль 0 10 км 6/0
[Ci sp]
+17.0 +0.5 33 +17 +17 1011.0 987.2 +16.7
09 17.01 ЮВ 8 10 км 6/0
[Ci fib]
+27.5 -10.5 7 +24 +25 комфорт 1012.7 989.0
12 17.01 Ю 4 10 км 4/0
[Ci fib]
+32.2 +2.9 16 +30 +39 жарко 1011.3 987.7
15 17.01 Ю 4 10 км 3/0
[Ci fib]
+35.5 +5.0 15 +33 +37 жарко 1008.8 985.2
18 17.01 штиль 0 10 км 4/0
[Ci fib]
+31.8 +6.8 21 +30 +30 жарко 1009.1 985.3 +36.2
21 17.01 штиль 0 10 км 4/0
[Ci fib]
+26.4 +2.3 21 +25 +25 комфорт 1010.1 986.5
03 18.01 штиль 0 10 км 4/0
[Ci fib]
+19.8 +3.0 33 +20 +20 1009.6 986.1
06 18.01 штиль 0 10 км 4/0
[Ci fib]
+18.0 +6.5 47 +18 +18 1010.2 987.6 +18.0
09 18.01 ЮВ 4 10 км 4/0
[Ci sp]
+25.5 +3.6 24 +25 +29 комфорт 1011.2 987.5
12 18.01 Ю 4 10 км 6/0
[Ci sp]
+35.0 +4.5 15 +32 +41 жарко 1010.0 986.7
15 18.01 Ю 4 10 км 9/0
[Cs]
+37.5 +4.5 13 +35 +38 очень
жарко
1007.8 984.4
18 18.01 штиль 0 10 км 9/0
[Cs]
+32.5 +9.5 24 +32 +32 жарко 1008.2 984.6 +38.0
21 18.01 штиль 0 10 км 9/0
[Ac trans Cs]
+27.6 +6.9 27 +27 +27 жарко 1009.8 986.2
03 19.01 штиль 0 10 км 9/0
[Ci sp]
+21.0 +7.0 40 +22 +22 комфорт 1008.6 985.3
06 19.01 СЗ 6 10 км 9/0
[Ac As Ci sp]
+21.8 +4.0 31 +22 +22 комфорт 1009.9 986.4 +21.0
09 19.01 СЗ 4 10 км 9/0
[Cs]
+22.5 +1.2 24 +22 +26 комфорт 1013.7 989.9
12 19.01 СЗ 12 6000 м пыль 9/0
[Ac trans Ci sp]
+31.0 -10.8 6 +27 +27 жарко 1013.0 989.4

 

Местоположение метеостанции Тиллабери (Нигер): широта 14.20 долгота 1.45 высота над уровнем моря 210 м.

В архиве по умолчанию представлена погода в Тиллабери за последнюю неделю. Архивные данные за месяц целиком и за предыдущие месяцы, начиная с января 2011 года, Вы можете получить, выбрав интересующий диапазон дат из раскрывающегося списка и нажав кнопку "Ввод!".


*Определитесь, кто Вы:
робот инопланетянин человек

Внимание! Время в таблицах - всемирное. Для получения местного времени необходимо прибавить поправку, которая равна 1 ч.

Смотрите также архив погоды в соседних городах и на ближайших метеорологических станциях:

Погода в Ниамее (Нигер) (112 км)
Погода в Дори (Буркина-Фасо) (161 км)
Погода в Досо (Нигер) (231 км)
Погода в Фада-Нгурме (Буркина-Фасо) (268 км)
Погода в Гае (Нигер) (337 км)
Погода в Канди (Бенин) (377 км)
Погода в Уагадугу (Буркина-Фасо) (382 км)
Погода в Дапаоне (Того) (389 км)
Погода в Вирнин-Конни (Нигер) (413 км)
Погода в Тахве (Нигер) (416 км)

Пояснения к столбцам:

Ветер - указаны скорость ветра в м/с - средняя за 10 мин, порывы в срок и между сроками (в фигурных скобках) и направление, откуда дует ветер: С - северный, СВ - северо-восточный, В - восточный, ЮВ - юго-восточный, Ю - южный, ЮЗ - юго-западный, З - западный, СЗ - северо-западный.
Видимость - горизонтальная дальность видимости в метрах или километрах. При видимости от 1 до 10 км при отсутствии осадков обычно наблюдается дымка, при ухудшении видимости до 1 км и менее - туман. В сухую погоду видимость может ухудшаться дымом, пылью или мглою.
Явления - указаны атмосферные явления, наблюдавшиеся в срок или в последний час перед сроком; фигурными скобками обозначены явления, наблюдавшиеся между сроками (за 1-3 часа до срока); квадратными скобками обозначены град или гололедные отложения с указанием их диаметра в мм.
Облачность - указаны через наклонную черту общая и нижняя облачность в баллах и высота нижней границы облаков в метрах; квадратными скобками обозначены формы облаков: Ci - перистые, Cs - перисто-слоистые, Cc - перисто-кучевые, Ac - высококучевые, As - высокослоистые, Sc - слоисто-кучевые, Ns - слоисто-дождевые, Cu - кучевые, Cb - кучево-дождевые. Подробнее классификацию облаков см. в Атласе облаков (PDF).
T - Температура воздуха - температура, измеренная на высоте 2 м над землей.
Td - Температура точки росы - температура, при понижении до которой содержащийся в воздухе водяной пар достигнет насыщения.
f - Относительная влажность воздуха - влажноcть воздуха, измеренная на высоте 2 м над землей.
Te - Эффективная температура - температура, которую ощущает одетый по сезону человек в тени. Характеристика душности погоды. При расчете учитывается влияние влажности воздуха и скорости ветра на теплоощущения человека.
Tes - Эффективная температура на солнце - температура, которую ощущает человек, с поправкой на солнечный нагрев. Характеристика знойности погоды. Зависит от высоты солнца над горизонтом, облачности и скорости ветра. Ночью, в пасмурную погоду, а также при ветре 12 м/с и более поправка равна нулю.
P - Атмосферное давление - приведенное к уровню моря атмосферное давление.
Po - Атмосферное давление - измеренное на уровне метеостанции атмосферное давление.
Tmin - Минимальная температура - минимум температуры воздуха на высоте 2 м над землей.
Tmax - Максимальная температура - максимум температуры воздуха на высоте 2 м над землей.
R - Количество осадков - Количество выпавших осадков за период времени, мм. При наведении курсора мыши на число - период времени, за который выпало указанное количество осадков.
R24 - Количество осадков - Количество выпавших осадков за 24 часа, мм.
S - Снежный покров - Высота снежного покрова, см. При наведении курсора мыши на число - состояние снежного покрова и степень покрытия местности в баллах.